Powrót do katalogu

ATLAS 2 CENTAUR R/B(2)

AktywnyGEO
NORAD 23648·ROCKET BODY·🇺🇸 United States

Wystrzelony Jul 31, 1995 z Cape Canaveral Space Force Station

Loading…

TLE

ŚwieżeSource: Space-Track

Epoka: Sep 9, 2026, 02:32 UTC

1 23648U 95038C   26252.10577488 -.00000171  00000-0  00000-0 0  9995
2 23648  13.6755 344.6309 0021503 290.6798  69.1328  1.01264410 26931

Śledź ATLAS 2 CENTAUR R/B(2) w czasie rzeczywistym z AllMySat

Download on the App Store